BEIDOU-3 IGSO-1

Last updated on Nov. 16, 2019, 4:19 a.m. UTC

1 44204U 19023A   19319.73506918 -.00000207  00000-0  10000-3 0  9995
2 44204  55.1872  63.2973 0015750 185.4474 181.6673  1.00302525  2243
UTC
Height (km)
Latitude
Longitude
Inclination
Orbital Period
UTC large
Height (km)
Speed (km/s)
/
Latitude / Longitude
Inclination (degrees)
Orbital Period (minutes)
Azimuth
Elevation
Range (km)
Doppler Factor
iOS Compass Heading
iOS Angle

Next 30 passes for location: Hong Kong

Rise time Rise Azimuth (degrees) Set time Set Azimuth (degrees) Duration Max altitude (degrees)

No matching passes for this satellites